Location: Cahas Mountain Overlook
(37.0833°N, 80.1000°W)
Time: 19:33:22
(UTC-04:00)

Tiros 1 - Pass Details

Date: 12 February 2026
Orbit: 618 x 649 km, 48.4° (Epoch: 13 March)

Event Time Altitude Azimuth Distance (km) Brightness Sun altitude
Rises 11:05:02 0° 245° (WSW) 2,893 10.5 35.2°
Reaches altitude 10° 11:07:23 10° 249° (WSW) 1,984 9.7 35.4°
Maximum altitude 11:11:52 59° 329° (NNW) 718 7.5 35.8°
Drops below altitude 10° 11:16:22 10° 49° (NE) 1,979 9.6 36.1°
Sets 11:18:42 0° 54° (NE) 2,885 10.4 36.3°
